Vertical_Velocity
-0 -0 -0 -0 0 0 -0 -0 -1 -1 -1 -1 -1 -1 -1 -1 -1 -1 -1 -0 -0 -0 -0 -1 -1 -1 -1 -1 -1 -1 -2 -2 -1 -0 -0 -0 -1 -1 -1 -1 -1 -0 0 1 1 1 1 1 1 1 1 1 1 1 1 -0 -0 -0 -0 0 0 1 1 2 1 0 -0 -1 -0
-1 -0 -0 -0 0 0 0 -0 -0 -1 -1 -1 -1 -1 -1 -1 -0 -0 -0 -0 -0 -0 -0 -1 -1 -1 -1 -1 -0 -1 -2 -2 -2 -1 0 -0 -1 -1 -1 -1 -1 -0 0 1 0 0 0 0 0 0 1 1 1 1 0 -0 -1 -1 -0 -0 0 0 1 1 1 0 -0 -1 -1
-1 -1 -0 -0 0 0 0 0 -0 -0 -1 -1 -1 -1 -1 -1 -0 -0 -0 -0 0 -0 -0 -1 -1 -1 -1 -1 -0 -1 -1 -3 -2 -1 0 -0 -1 -1 -1 -1 -0 0 0 0 0 0 1 1 0 0 1 0 0 -0 -1 -1 -1 -1 -1 -1 -1 -0 -0 0 1 0 -1 -1 -1
-1 -1 -1 -0 -0 0 0 0 -0 -0 -0 -0 -1 -1 -1 -1 -1 -0 -0 0 0 -0 -0 -1 -1 -1 -1 -1 -1 -1 -2 -2 -2 -1 -0 -0 -1 -1 -1 -1 -0 0 0 1 1 1 1 1 0 0 0 0 -0 -1 -1 -1 -1 -1 -1 -1 -1 -1 -1 -0 0 0 -0 -1 -1
-1 -1 -1 -0 -0 -0 0 0 0 0 -0 -0 -0 -1 -1 -1 -1 -1 -0 0 -0 -0 -1 -1 -1 -1 -1 -1 -1 -1 -2 -2 -2 -1 -1 -0 -1 -1 -1 -1 -1 -0 0 0 1 1 1 1 1 0 0 0 -1 -1 -1 -0 -1 -1 -1 -1 -1 -1 -1 -0 -0 0 -0 -1 -1
-1 -1 -0 -0 -0 0 0 0 0 0 0 -0 -0 -1 -1 -1 -1 -1 -0 0 0 -0 -0 -0 -0 -1 -1 -1 -1 -1 -1 -1 -1 -1 -1 -1 -1 -1 -1 -1 -1 -1 -0 -0 0 1 1 0 0 0 0 -0 -0 -0 0 -0 -1 -1 -1 -2 -2 -2 -1 -1 -0 -0 0 -0 -0
-1 -1 -0 -0 -0 0 0 1 1 0 0 0 -0 -0 -1 -1 -1 -0 -0 -0 -0 -0 -0 -0 -0 -1 -1 -1 -0 -1 -1 -1 -1 -1 -1 -1 -1 -1 -1 -1 -1 -1 -0 -0 -0 0 0 -0 -0 -0 -0 -1 -1 -1 -0 -0 -0 -1 -1 -2 -2 -2 -1 -1 -0 -0 0 -0 -0
-1 -0 -0 -0 0 0 0 0 0 0 0 0 -0 -0 -0 -0 -0 -0 -0 -0 -0 -0 -0 -1 -0 -0 -0 -0 -0 -0 -1 -2 -1 -1 -1 -1 -1 -1 -1 -1 -1 -1 -1 -1 -0 -0 -1 -1 -1 -1 -1 -1 -1 -1 -1 -1 -0 -1 -1 -2 -1 -1 -1 -0 -0 -0 0 1 0
-0 -0 -0 -0 0 0 0 0 0 0 0 0 -0 -0 -0 -0 -0 -0 -0 -0 -0 -0 -0 -1 -0 -0 -0 0 -0 -0 -1 -1 -2 -1 -1 -1 -1 -1 -1 -1 -1 -1 -1 -1 -1 -1 -1 -1 -1 -1 -1 -1 -2 -2 -1 -1 -1 -1 -2 -2 -1 -0 0 1 1 1 1 1 0
-0 -0 0 0 0 0 0 0 0 0 0 0 -0 -0 -0 -0 -0 -0 -0 -0 -0 -0 -1 -1 -1 -0 -0 -0 -0 -0 -1 -1 -1 -1 -1 -1 -1 -1 -1 -1 -1 -1 -1 -1 -1 -1 -1 -1 -1 -1 -0 -0 -1 -1 -1 -1 -1 -2 -2 -2 -1 -0 0 1 1 1 1 1 1
-0 -0 0 0 0 0 0 0 0 0 0 0 0 0 0 -0 -0 -0 -0 -0 -0 -1 -0 -0 -0 -0 -0 -0 -0 -0 -1 -1 -1 -1 -1 -1 -1 -1 -1 -1 -1 -1 -1 -1 -1 -1 -1 -1 -1 -0 -0 -0 -0 -1 -1 -1 -1 -2 -2 -2 -1 -1 -0 0 1 1 1 1 1
-0 -0 -0 0 0 0 0 -0 -0 -0 -0 -0 0 0 -0 -0 -0 -0 -0 -0 -0 -0 -0 -0 -0 -0 -0 -0 -0 -1 -1 -1 -1 -1 -1 -1 -1 -1 -1 -1 -1 -1 -1 -1 -1 -0 -1 -1 -0 -0 -0 -0 -0 -1 -1 -1 -1 -2 -2 -2 -2 -2 -1 -1 -0 0 1 2 2
-0 -0 0 0 0 0 0 -0 -0 -0 -0 -0 0 -0 -0 -0 -0 -0 -0 -0 -0 -0 -0 -0 -0 -0 -0 -0 -0 -1 -1 -2 -2 -1 -1 -1 -1 -1 -1 -1 -1 -1 -1 -1 -0 -0 -0 -0 -0 -0 -0 -0 -1 -1 -1 -1 -1 -2 -2 -2 -3 -3 -2 -1 -0 1 2 2 1
-0 -0 0 0 0 0 0 -0 -0 -0 -0 0 0 -0 -0 -0 -0 -0 -0 -0 -0 -0 -0 -0 -0 0 0 -0 -0 -1 -1 -2 -2 -2 -1 -1 -1 -1 -1 -1 -1 -1 -1 -1 -0 -0 -0 -0 -0 -0 -0 -0 -0 -1 -1 -1 -1 -2 -2 -3 -3 -3 -3 -2 -1 -0 0 0 1
-0 -0 -0 0 0 0 0 -0 -0 -0 0 0 0 -0 -0 -1 -1 -0 -0 -0 -0 -0 -0 -0 -0 0 0 0 -0 -1 -1 -2 -2 -2 -1 -1 -1 -1 -1 -2 -1 -1 -1 -1 -1 -0 0 0 -0 -0 -0 -0 -0 -0 -0 -1 -1 -1 -2 -2 -3 -3 -3 -2 -1 -1 -1 -1 -0
-0 -0 -0 0 0 0 0 0 -0 -0 0 0 0 0 -0 -1 -1 -1 -1 -0 -0 -0 -0 -0 0 0 0 0 -0 -0 -1 -1 -2 -2 -2 -2 -1 -1 -1 -1 -1 -1 -1 -1 -1 -0 -0 0 -0 -0 -0 -0 -0 -0 -0 -0 -1 -1 -1 -2 -2 -3 -3 -3 -2 -2 -1 -1 -1
-0 -0 -0 -0 0 0 0 0 0 0 0 0 0 0 -0 -0 -1 -1 -1 -0 -0 -0 -0 -0 0 0 0 0 -0 -0 -1 -1 -2 -2 -2 -2 -2 -2 -2 -1 -1 -1 -1 -1 -1 -0 -0 -0 -0 -0 0 0 0 -0 -0 -0 -0 -1 -1 -1 -1 -2 -3 -3 -3 -2 -2 -2 -2
-0 -0 -0 -0 -0 -0 0 0 0 0 0 0 0 0 -0 -0 -1 -1 -1 -0 -0 -0 -0 -0 0 0 0 0 0 -0 -0 -0 -1 -2 -2 -2 -2 -2 -2 -2 -1 -1 -1 -1 -1 -0 -0 -0 -0 0 0 0 0 0 -0 -0 -0 -0 -1 -1 -1 -1 -2 -3 -3 -3 -2 -2 -2
-1 -1 -0 -0 -0 -0 -0 -0 0 0 0 0 0 0 -0 -0 -0 -1 -1 -0 -0 -0 -0 0 0 0 0 0 0 0 0 -0 -0 -1 -2 -2 -2 -2 -2 -2 -2 -1 -1 -1 -1 -1 -0 -0 -0 -0 0 0 0 0 0 0 0 -0 -0 -0 -1 -1 -1 -2 -2 -2 -2 -2 -2
-0 -0 -0 -0 -0 -0 -0 -0 0 0 0 0 0 -0 -0 -0 -0 -0 -0 -0 -0 -0 0 0 0 0 0 0 0 0 0 0 -0 -1 -1 -1 -2 -2 -3 -3 -2 -1 -1 -1 -1 -1 -1 -0 -0 -0 -0 -0 -0 0 0 0 0 0 -0 -0 -1 -1 -1 -1 -1 -2 -2 -2 -2
-0 -0 -0 -0 -0 -0 -0 -0 0 0 0 0 -0 -0 -0 -0 -0 -0 -0 -0 -0 -0 -0 -0 0 0 0 0 0 0 0 0 0 -0 -0 -1 -1 -2 -2 -3 -2 -2 -1 -1 -1 -1 -1 -1 -0 -0 -0 -0 -0 -0 0 0 0 0 -0 -0 -0 -0 -0 -0 -0 -1 -1 -1 -2
-0 -0 -0 -0 -0 -0 -0 0 0 0 -0 -0 -0 -0 -0 -0 -0 -0 -0 -0 -0 -0 -0 -0 0 0 0 0 0 0 0 0 0 0 0 -0 -1 -1 -2 -2 -2 -2 -1 -2 -2 -2 -1 -1 -1 -0 -0 -0 -0 -0 -0 -0 -0 -0 -0 -0 -0 -0 -0 -0 -0 -0 -0 -1 -1
-0 -0 -0 -0 0 0 0 0 0 0 -0 -0 -0 -0 -0 -0 -0 -0 -0 -0 -0 -0 -0 -0 0 0 0 0 -0 -0 -0 -0 0 0 0 0 -0 -1 -1 -1 -1 -1 -1 -1 -2 -2 -2 -1 -1 -1 -1 -0 -1 -1 -0 -0 -0 -0 0 0 0 -0 -0 -0 -0 -0 -0 -0 -1
-0 -0 0 0 0 0 0 0 0 0 -0 -0 -0 -0 -0 -0 -0 -0 -0 -0 -0 -0 -0 -0 0 0 0 0 -0 -0 -0 -1 -0 -0 0 0 -0 -0 -1 -1 -0 -0 -1 -1 -1 -2 -2 -1 -1 -1 -1 -1 -1 -1 -1 -1 -0 -0 -0 0 0 -0 -0 -0 -0 -0 -0 -0 -0
-0 0 0 0 0 0 0 0 0 0 -0 -0 -0 -0 -0 -0 -0 -0 -0 -0 -0 -0 -0 -0 0 0 0 0 0 -0 -1 -1 -1 -0 0 -0 -0 -0 -0 -0 -0 -0 -0 -1 -1 -2 -2 -1 -1 -1 -1 -1 -1 -1 -1 -1 -0 -0 -0 -0 -0 -0 -0 -0 -0 -0 -0 -0 -0
0 0 0 0 1 1 1 1 0 0 -0 -0 -0 -0 -0 -0 -0 -0 -0 -0 0 0 0 0 0 0 0 0 0 -0 -0 -1 -1 -0 0 -0 -0 -0 -1 -0 -0 -0 -1 -1 -1 -1 -1 -1 -1 -1 -1 -1 -1 -1 -1 -1 -1 -1 -1 -0 -0 -0 -0 -0 -0 -0 -0 -0 -0
0 0 0 0 1 1 1 1 0 0 0 -0 0 0 0 -0 -0 -0 -0 0 0 0 0 0 0 0 0 0 -0 -0 -1 -1 -1 -0 0 0 -0 -1 -1 -1 -1 -1 -1 -1 -1 -1 -1 -1 -1 -1 -1 -1 -1 -1 -1 -1 -1 -1 -1 -1 -0 -0 -1 -1 -1 -0 -0 -0 -0
0 0 0 1 1 1 1 1 1 0 0 0 0 0 0 0 -0 -0 -0 0 1 1 1 1 0 0 0 0 -0 -0 -1 -1 -0 -0 0 0 -0 -0 -1 -1 -1 -1 -1 -1 -1 -1 -1 -1 -1 -1 -1 -1 -1 -1 -0 -1 -1 -1 -1 -1 -1 -1 -1 -1 -1 -1 -0 -0 -0
0 0 0 1 1 1 1 1 1 0 0 0 0 0 0 0 -0 -0 -0 0 1 1 1 1 1 1 1 0 -0 -0 -0 -0 -0 -0 0 0 -0 -0 -1 -1 -1 -1 -1 -1 -1 -1 -1 -1 -1 -1 -1 -1 -1 -0 -0 -0 -0 -0 -0 -0 -1 -1 -1 -1 -1 -1 -1 -1 -1
-0 0 0 0 1 1 1 1 1 0 0 0 0 1 0 0 -0 -0 0 0 0 0 1 1 1 1 1 1 1 0 -0 -0 -0 0 0 0 -0 -0 -0 -0 -1 -1 -1 -1 -1 -1 -1 -1 -1 -1 -1 -1 -1 -0 0 0 0 -0 -0 -0 -0 -1 -1 -1 -1 -1 -1 -1 -1
-0 0 0 0 0 0 0 0 0 0 0 0 0 0 0 0 0 0 0 0 0 0 0 1 1 1 1 1 1 1 1 0 0 0 0 0 -0 -0 -0 -1 -1 -1 -1 -1 -1 -1 -1 -1 -1 -1 -1 -1 -1 -0 -0 -0 -0 -0 -0 -0 -0 -0 -1 -1 -1 -1 -1 -1 -1
-0 0 0 0 0 0 0 0 0 0 0 0 0 0 0 0 0 0 0 0 0 0 0 0 1 1 1 1 1 1 1 1 1 1 0 0 -0 -0 -0 -1 -1 -1 -1 -1 -1 -1 -1 -1 -1 -1 -1 -1 -1 -1 -1 -1 -1 -1 -1 -1 -1 -1 -1 -1 -1 -1 -1 -1 -1
-0 -0 -0 -0 -0 -0 -0 0 0 0 0 0 0 0 0 0 0 0 0 0 0 0 0 0 1 1 1 0 0 1 1 1 1 1 0 0 0 -0 -0 -0 -1 -1 -1 -1 -1 -1 -1 -1 -1 -1 -1 -1 -1 -1 -1 -1 -1 -1 -1 -1 -1 -1 -1 -1 -1 -1 -1 -1 -1
-0 -0 -0 -0 -0 -0 -0 -0 -0 -0 0 0 -0 -0 -0 0 0 0 0 0 0 0 0 0 0 0 0 0 0 0 0 1 0 0 0 0 0 0 -0 -0 -1 -1 -1 -1 -1 -1 -1 -1 -1 -1 -1 -1 -1 -1 -1 -1 -1 -1 -1 -1 -1 -1 -2 -2 -2 -2 -2 -2 -2
-0 -0 -0 -0 -0 -0 -0 -0 -0 -0 -0 -0 -0 -0 -0 -0 -0 0 0 0 0 0 0 0 0 0 0 0 0 0 0 0 -0 -0 -0 -0 -0 -0 -0 -0 -1 -1 -1 -1 -1 -1 -1 -1 -1 -2 -2 -2 -2 -1 -1 -1 -1 -1 -1 -1 -1 -1 -1 -1 -2 -2 -2 -2 -2
-0 -0 0 0 -0 -0 -0 -0 -0 -0 -0 -0 -0 -0 -0 -0 -0 -0 0 0 0 0 0 0 0 -0 -0 -0 0 0 0 -0 -0 -0 -0 -0 -0 -0 -0 -0 -0 -0 -1 -1 -1 -1 -1 -1 -2 -2 -2 -2 -2 -2 -2 -2 -1 -1 -2 -2 -1 -1 -1 -1 -1 -2 -2 -2 -2
-0 0 0 0 0 0 0 -0 -0 -0 -0 -0 -0 -0 -0 -0 -0 -0 0 0 0 0 -0 -0 -0 -0 -0 -0 0 0 0 -0 -0 -0 -1 -0 -0 -0 -0 -0 -0 -0 -0 -1 -1 -1 -1 -1 -1 -1 -1 -1 -1 -2 -2 -2 -2 -2 -2 -2 -2 -2 -2 -2 -2 -1 -1 -1 -2
-0 0 0 0 0 0 0 0 0 -0 -0 -0 -0 -0 -0 -0 -0 -0 -0 -0 -0 -0 -0 -0 -0 -0 -0 0 0 0 0 0 -0 -0 -0 -1 -0 -0 -0 -0 -0 -0 -0 -0 -0 -1 -1 -1 -1 -1 -1 -1 -1 -1 -1 -1 -2 -2 -2 -2 -2 -2 -2 -2 -2 -2 -1 -1 -1
-0 0 0 0 1 1 1 0 0 0 0 -0 -0 -0 -0 -0 -0 -0 -0 -0 -0 -0 -0 -0 -0 -0 0 0 0 0 0 0 0 -0 -0 -0 -0 -0 -0 -0 0 0 0 0 -0 -0 -0 -1 -1 -0 -0 -0 -0 -0 -0 -1 -1 -1 -1 -1 -1 -1 -1 -2 -2 -2 -2 -1 -1
0 0 0 1 1 1 1 1 0 0 -0 -0 -0 -0 -0 -0 -1 -1 -0 -0 -0 -0 -0 -0 -0 -0 0 0 0 0 0 0 0 0 0 -0 -0 0 0 0 0 0 0 0 0 -0 -0 -0 -0 -0 -0 -0 0 0 0 -0 -0 -0 -0 -0 -0 -1 -1 -1 -1 -1 -1 -1 -1
1 1 1 1 1 1 1 1 0 0 -0 -0 -0 -0 -0 -1 -1 -1 -1 -0 -0 -0 -0 -1 -0 -0 0 0 -0 -0 0 0 0 0 0 0 0 0 0 0 0 0 0 1 0 0 0 -0 -0 -0 -0 0 0 0 1 0 -0 -0 -0 -0 -0 -0 -0 -0 -0 -0 -1 -1 -1
Height
1448 1447 1447 1447 1447 1446 1446 1446 1445 1445 1445 1445 1445 1444 1444 1444 1443 1443 1442 1442 1442 1441 1441 1440 1439 1439 1438 1437 1437 1436 1435 1433 1432 1432 1431 1431 1430 1429 1428 1428 1427 1426 1426 1425 1424 1423 1422 1421 1420 1418 1417 1416 1415 1413 1412 1411 1409 1408 1407 1405 1404 1402 1401 1400 1398 1397 1396 1394 1392
1447 1447 1447 1447 1447 1446 1446 1445 1445 1445 1445 1444 1444 1444 1444 1443 1443 1443 1442 1442 1441 1441 1440 1439 1439 1438 1438 1437 1437 1436 1435 1434 1433 1432 1432 1431 1430 1429 1428 1427 1427 1426 1426 1425 1424 1422 1422 1420 1419 1418 1417 1416 1414 1413 1412 1410 1409 1407 1406 1405 1403 1402 1401 1399 1398 1397 1395 1394 1392
1447 1447 1447 1446 1446 1446 1445 1445 1445 1444 1444 1444 1444 1444 1444 1443 1443 1442 1442 1441 1441 1440 1440 1439 1438 1438 1437 1437 1437 1436 1435 1434 1433 1432 1432 1431 1430 1429 1428 1428 1427 1426 1426 1425 1424 1423 1422 1421 1419 1418 1417 1416 1414 1413 1412 1410 1409 1407 1406 1405 1403 1402 1400 1399 1398 1397 1395 1393 1392
1447 1446 1446 1446 1446 1445 1445 1445 1444 1444 1444 1444 1444 1443 1443 1443 1442 1442 1442 1441 1441 1440 1439 1439 1438 1437 1437 1437 1436 1436 1435 1434 1433 1432 1432 1431 1430 1429 1428 1428 1427 1426 1426 1425 1424 1423 1422 1421 1419 1418 1417 1416 1414 1413 1412 1410 1409 1407 1406 1405 1403 1402 1400 1399 1398 1397 1395 1393 1392
1446 1446 1446 1446 1445 1445 1445 1444 1444 1444 1444 1443 1443 1443 1443 1443 1442 1442 1442 1441 1440 1440 1439 1438 1438 1437 1437 1436 1436 1435 1435 1434 1433 1432 1432 1431 1430 1429 1428 1428 1427 1426 1426 1425 1424 1423 1422 1421 1420 1418 1417 1416 1415 1413 1412 1411 1409 1408 1407 1405 1403 1402 1401 1399 1398 1397 1395 1394 1392
1446 1446 1445 1445 1445 1445 1444 1444 1444 1443 1443 1443 1443 1443 1442 1442 1442 1442 1441 1441 1440 1439 1439 1438 1437 1437 1436 1436 1435 1435 1435 1434 1433 1432 1432 1431 1430 1429 1428 1428 1427 1426 1426 1425 1424 1423 1422 1421 1420 1418 1417 1416 1415 1414 1412 1411 1410 1408 1407 1405 1404 1402 1401 1400 1398 1397 1396 1394 1393
1445 1445 1445 1445 1445 1444 1444 1444 1443 1443 1443 1443 1442 1442 1442 1442 1442 1441 1441 1440 1440 1439 1439 1438 1437 1437 1436 1435 1435 1435 1434 1434 1433 1432 1432 1431 1430 1429 1428 1428 1427 1426 1426 1425 1424 1423 1422 1421 1420 1418 1417 1416 1415 1414 1413 1412 1410 1409 1407 1406 1404 1403 1402 1400 1399 1397 1396 1395 1393
1445 1445 1445 1444 1444 1444 1444 1443 1443 1443 1442 1442 1442 1442 1442 1442 1442 1441 1441 1440 1440 1439 1438 1438 1437 1437 1436 1435 1435 1434 1434 1433 1433 1432 1432 1431 1430 1429 1428 1428 1427 1426 1426 1425 1424 1423 1422 1421 1420 1419 1417 1417 1415 1414 1413 1412 1411 1409 1408 1406 1405 1403 1402 1401 1400 1398 1397 1396 1394
1444 1444 1444 1444 1444 1443 1443 1443 1443 1442 1442 1442 1442 1442 1442 1441 1441 1441 1440 1440 1439 1439 1438 1437 1437 1436 1436 1435 1434 1434 1433 1433 1432 1432 1432 1431 1430 1429 1428 1428 1427 1426 1425 1425 1424 1423 1422 1421 1420 1419 1418 1417 1416 1415 1413 1412 1411 1410 1408 1407 1406 1404 1403 1402 1400 1399 1397 1396 1395
1444 1444 1444 1444 1443 1443 1443 1443 1442 1442 1442 1442 1441 1441 1441 1441 1441 1440 1440 1440 1439 1439 1438 1437 1437 1436 1435 1435 1434 1434 1433 1433 1432 1432 1431 1431 1430 1429 1428 1427 1427 1426 1425 1424 1424 1423 1422 1421 1420 1419 1418 1417 1416 1415 1414 1413 1412 1410 1409 1408 1407 1405 1404 1402 1401 1400 1398 1397 1395
1444 1443 1443 1443 1443 1443 1442 1442 1442 1442 1442 1441 1441 1441 1441 1441 1440 1440 1440 1439 1439 1438 1438 1437 1437 1436 1435 1435 1434 1433 1433 1432 1432 1432 1431 1430 1430 1429 1428 1427 1427 1426 1425 1424 1423 1423 1422 1421 1420 1419 1418 1417 1416 1415 1414 1413 1412 1411 1410 1408 1407 1406 1405 1403 1402 1400 1399 1397 1396
1443 1443 1443 1443 1443 1442 1442 1442 1442 1441 1441 1441 1441 1440 1440 1440 1440 1440 1439 1439 1439 1438 1438 1437 1437 1436 1435 1435 1434 1433 1433 1432 1432 1432 1431 1430 1430 1429 1428 1427 1426 1425 1425 1424 1423 1422 1422 1421 1420 1419 1418 1417 1417 1415 1414 1413 1412 1411 1410 1409 1408 1407 1405 1404 1402 1401 1400 1399 1397
1443 1443 1442 1442 1442 1442 1442 1442 1441 1441 1441 1440 1440 1440 1440 1440 1440 1439 1439 1439 1438 1438 1437 1437 1437 1436 1435 1435 1434 1433 1433 1432 1432 1432 1431 1430 1430 1429 1428 1427 1426 1425 1424 1424 1423 1422 1422 1421 1420 1420 1419 1418 1417 1416 1415 1413 1412 1411 1410 1409 1408 1407 1406 1405 1403 1402 1401 1400 1398
1442 1442 1442 1442 1442 1442 1442 1441 1441 1441 1440 1440 1440 1440 1439 1439 1439 1439 1439 1438 1438 1438 1437 1437 1437 1436 1435 1435 1434 1434 1433 1432 1432 1432 1431 1431 1430 1429 1428 1427 1426 1425 1424 1423 1422 1422 1422 1421 1420 1420 1419 1418 1417 1416 1415 1414 1413 1412 1411 1410 1409 1407 1407 1405 1404 1403 1402 1400 1399
1442 1442 1442 1442 1442 1441 1441 1441 1441 1440 1440 1440 1440 1439 1439 1439 1439 1439 1438 1438 1438 1437 1437 1437 1436 1436 1435 1435 1434 1434 1433 1432 1432 1432 1431 1431 1430 1429 1428 1427 1426 1425 1424 1423 1422 1422 1422 1421 1420 1420 1419 1418 1417 1417 1416 1415 1414 1412 1411 1410 1409 1408 1407 1406 1405 1404 1403 1402 1400
1441 1441 1441 1441 1441 1441 1441 1441 1440 1440 1440 1440 1439 1439 1439 1439 1439 1438 1438 1438 1437 1437 1437 1437 1436 1436 1435 1435 1434 1434 1433 1432 1432 1432 1431 1431 1430 1429 1428 1427 1427 1426 1424 1423 1423 1422 1421 1421 1420 1420 1419 1418 1417 1417 1416 1415 1414 1413 1412 1411 1410 1409 1408 1407 1406 1405 1404 1402 1401
1441 1441 1441 1441 1441 1440 1440 1440 1440 1440 1439 1439 1439 1439 1439 1438 1438 1438 1438 1437 1437 1437 1437 1436 1436 1436 1435 1435 1434 1434 1433 1432 1432 1432 1431 1431 1430 1430 1429 1428 1427 1426 1425 1424 1423 1422 1422 1421 1420 1420 1419 1418 1418 1417 1416 1416 1415 1414 1413 1412 1411 1410 1409 1408 1407 1406 1405 1404 1402
1440 1440 1440 1440 1440 1440 1440 1440 1439 1439 1439 1439 1439 1438 1438 1438 1438 1438 1438 1437 1437 1437 1436 1436 1436 1435 1435 1435 1434 1434 1433 1432 1432 1432 1432 1431 1430 1430 1429 1428 1427 1427 1425 1424 1423 1422 1422 1421 1421 1420 1419 1418 1418 1417 1417 1416 1415 1415 1414 1413 1412 1411 1410 1409 1408 1407 1406 1405 1404
1439 1439 1439 1440 1439 1439 1439 1439 1439 1439 1439 1439 1438 1438 1438 1438 1438 1438 1437 1437 1437 1437 1436 1436 1436 1435 1435 1434 1434 1433 1433 1432 1432 1432 1432 1431 1431 1430 1429 1429 1428 1427 1426 1425 1424 1423 1422 1422 1421 1420 1419 1419 1418 1417 1417 1416 1416 1415 1414 1413 1412 1412 1411 1410 1409 1408 1407 1406 1405
1439 1439 1439 1439 1439 1439 1439 1439 1439 1438 1438 1438 1438 1438 1438 1437 1437 1437 1437 1437 1437 1436 1436 1436 1435 1435 1435 1434 1434 1433 1433 1433 1432 1432 1432 1431 1431 1430 1430 1429 1428 1427 1427 1425 1424 1423 1423 1422 1421 1421 1420 1419 1418 1417 1417 1417 1416 1415 1415 1414 1413 1412 1412 1411 1410 1409 1408 1407 1406
1438 1438 1438 1438 1438 1438 1438 1438 1438 1438 1438 1438 1438 1437 1437 1437 1437 1437 1437 1437 1437 1436 1436 1436 1435 1435 1435 1434 1434 1433 1433 1432 1432 1432 1432 1431 1431 1430 1430 1429 1429 1428 1427 1426 1425 1424 1423 1422 1422 1421 1420 1419 1419 1418 1417 1417 1416 1416 1415 1414 1414 1413 1412 1412 1411 1410 1409 1408 1407
1437 1437 1438 1438 1438 1438 1438 1438 1438 1437 1437 1437 1437 1437 1437 1437 1437 1437 1437 1436 1436 1436 1436 1435 1435 1435 1434 1434 1434 1433 1433 1432 1432 1432 1432 1431 1431 1430 1430 1429 1429 1428 1427 1427 1426 1425 1424 1423 1422 1421 1421 1420 1419 1418 1418 1417 1417 1416 1415 1415 1414 1414 1413 1412 1412 1411 1410 1409 1408
1437 1437 1437 1437 1437 1437 1437 1437 1437 1437 1437 1437 1437 1437 1437 1437 1437 1437 1436 1436 1436 1436 1435 1435 1435 1435 1434 1434 1433 1433 1432 1432 1432 1432 1431 1431 1431 1430 1430 1430 1429 1428 1428 1427 1426 1425 1424 1423 1422 1422 1421 1420 1419 1419 1418 1417 1417 1417 1416 1415 1415 1414 1414 1413 1412 1412 1411 1410 1409
1436 1436 1437 1437 1437 1437 1437 1437 1437 1437 1437 1437 1437 1437 1437 1436 1436 1436 1436 1436 1436 1435 1435 1435 1435 1434 1434 1434 1433 1433 1432 1432 1432 1432 1431 1431 1431 1430 1430 1430 1429 1429 1428 1427 1427 1426 1425 1424 1423 1422 1421 1421 1420 1419 1419 1418 1417 1417 1417 1416 1415 1415 1414 1414 1413 1412 1412 1411 1410
1435 1436 1436 1436 1436 1436 1436 1436 1436 1436 1436 1436 1436 1436 1436 1436 1436 1436 1436 1436 1435 1435 1435 1435 1435 1434 1434 1434 1433 1433 1432 1432 1432 1432 1431 1431 1431 1430 1430 1430 1429 1429 1428 1427 1427 1426 1425 1424 1423 1422 1422 1421 1420 1420 1419 1418 1418 1417 1417 1416 1416 1415 1415 1414 1414 1413 1412 1412 1411
1434 1435 1435 1435 1435 1435 1436 1436 1436 1436 1436 1436 1436 1436 1436 1436 1436 1436 1436 1435 1435 1435 1435 1435 1434 1434 1434 1434 1433 1433 1432 1432 1432 1432 1431 1431 1431 1430 1430 1430 1429 1429 1428 1427 1427 1426 1425 1425 1424 1423 1422 1422 1421 1420 1420 1419 1418 1418 1417 1417 1416 1416 1415 1415 1414 1414 1413 1412 1412
1434 1434 1434 1434 1435 1435 1435 1435 1435 1435 1435 1435 1435 1435 1435 1435 1435 1435 1435 1435 1435 1435 1435 1435 1434 1434 1434 1433 1433 1433 1432 1432 1432 1432 1432 1431 1431 1430 1430 1430 1429 1429 1428 1427 1427 1426 1426 1425 1424 1423 1422 1422 1421 1421 1420 1419 1419 1418 1418 1417 1417 1416 1416 1415 1415 1414 1413 1413 1412
1432 1433 1433 1433 1434 1434 1434 1434 1434 1435 1435 1435 1435 1435 1435 1435 1435 1435 1435 1435 1435 1435 1435 1434 1434 1434 1434 1433 1433 1433 1432 1432 1432 1432 1432 1431 1431 1431 1430 1430 1429 1429 1428 1427 1427 1426 1426 1425 1424 1424 1423 1422 1422 1421 1421 1420 1419 1419 1418 1418 1417 1417 1416 1415 1415 1414 1414 1413 1413
1432 1432 1432 1432 1433 1433 1433 1434 1434 1434 1434 1434 1434 1434 1434 1434 1434 1435 1435 1435 1435 1434 1434 1434 1434 1434 1434 1433 1433 1433 1432 1432 1432 1432 1432 1431 1431 1431 1430 1430 1429 1429 1428 1428 1427 1427 1426 1425 1425 1424 1423 1423 1422 1422 1421 1421 1420 1419 1419 1418 1417 1417 1416 1416 1415 1415 1414 1414 1413
1431 1431 1431 1432 1432 1432 1432 1433 1433 1433 1433 1434 1434 1434 1434 1434 1434 1434 1434 1434 1434 1434 1434 1434 1434 1434 1434 1433 1433 1433 1432 1432 1432 1432 1432 1432 1431 1431 1430 1430 1430 1429 1429 1428 1427 1427 1426 1426 1425 1425 1424 1423 1423 1422 1422 1421 1421 1420 1419 1418 1418 1417 1417 1416 1416 1415 1415 1414 1414
1430 1430 1430 1431 1431 1432 1432 1432 1432 1432 1433 1433 1433 1433 1433 1433 1433 1434 1434 1434 1434 1434 1434 1434 1434 1434 1433 1433 1433 1433 1433 1432 1432 1432 1432 1432 1431 1431 1431 1430 1430 1429 1429 1428 1428 1427 1427 1426 1426 1425 1425 1424 1423 1423 1422 1422 1421 1420 1420 1419 1418 1418 1417 1417 1416 1416 1415 1415 1414
1429 1429 1429 1430 1430 1431 1431 1431 1432 1432 1432 1432 1432 1433 1433 1433 1433 1433 1433 1433 1433 1433 1433 1433 1433 1433 1433 1433 1433 1433 1433 1432 1432 1432 1432 1432 1431 1431 1431 1430 1430 1430 1429 1429 1428 1427 1427 1427 1426 1426 1425 1424 1424 1423 1423 1422 1422 1421 1420 1420 1419 1418 1418 1417 1417 1416 1416 1415 1415
1427 1428 1428 1429 1429 1429 1430 1430 1431 1431 1431 1432 1432 1432 1432 1432 1432 1433 1433 1433 1433 1433 1433 1433 1433 1433 1433 1433 1433 1433 1432 1432 1432 1432 1432 1432 1432 1431 1431 1431 1430 1430 1429 1429 1428 1428 1427 1427 1426 1426 1425 1425 1424 1424 1423 1423 1422 1422 1421 1420 1420 1419 1419 1418 1417 1417 1416 1416 1415
1427 1427 1427 1428 1428 1428 1429 1429 1430 1430 1431 1431 1431 1431 1432 1432 1432 1432 1432 1432 1432 1432 1432 1432 1432 1432 1432 1432 1432 1432 1432 1432 1432 1432 1432 1432 1432 1431 1431 1431 1430 1430 1429 1429 1428 1428 1427 1427 1427 1426 1425 1425 1424 1424 1423 1423 1422 1422 1421 1421 1420 1420 1419 1419 1418 1418 1417 1417 1416
1425 1426 1426 1427 1427 1427 1428 1428 1429 1429 1430 1430 1430 1431 1431 1431 1431 1432 1432 1432 1432 1432 1432 1432 1432 1432 1432 1432 1432 1432 1432 1432 1432 1432 1432 1432 1432 1431 1431 1431 1430 1430 1430 1429 1428 1428 1427 1427 1427 1426 1426 1425 1425 1424 1424 1423 1423 1422 1422 1421 1421 1420 1420 1419 1419 1418 1418 1417 1417
1424 1425 1425 1426 1426 1427 1427 1427 1428 1428 1429 1429 1429 1430 1430 1430 1431 1431 1431 1431 1431 1432 1432 1432 1432 1432 1432 1432 1432 1432 1432 1432 1432 1432 1432 1432 1432 1431 1431 1431 1430 1430 1430 1429 1429 1428 1428 1427 1427 1426 1426 1425 1425 1424 1424 1423 1423 1422 1422 1421 1421 1420 1420 1419 1419 1418 1418 1417 1417
1423 1424 1424 1425 1425 1426 1426 1427 1427 1427 1428 1428 1429 1429 1429 1430 1430 1430 1430 1431 1431 1431 1431 1431 1432 1432 1432 1432 1432 1432 1432 1432 1432 1432 1431 1431 1431 1431 1431 1431 1430 1430 1430 1429 1429 1428 1428 1427 1427 1426 1426 1425 1425 1424 1424 1424 1423 1422 1422 1422 1421 1421 1420 1420 1419 1418 1418 1417 1417
1422 1423 1423 1424 1424 1425 1425 1426 1426 1427 1427 1427 1428 1428 1428 1429 1429 1429 1430 1430 1430 1431 1431 1431 1431 1431 1431 1431 1431 1431 1431 1431 1431 1431 1431 1431 1431 1431 1431 1430 1430 1430 1429 1429 1429 1428 1428 1427 1427 1427 1426 1426 1425 1425 1424 1424 1423 1423 1422 1422 1421 1421 1420 1420 1419 1419 1418 1417 1417
1421 1422 1422 1423 1423 1424 1424 1425 1425 1426 1426 1427 1427 1427 1428 1428 1428 1429 1429 1429 1430 1430 1430 1430 1431 1431 1431 1431 1431 1431 1431 1431 1431 1431 1431 1431 1430 1430 1430 1430 1430 1429 1429 1429 1428 1428 1427 1427 1427 1427 1426 1426 1425 1425 1424 1424 1423 1423 1422 1422 1422 1421 1421 1420 1419 1419 1418 1418 1417
1420 1421 1421 1422 1422 1423 1423 1424 1425 1425 1425 1426 1426 1427 1427 1427 1428 1428 1428 1429 1429 1429 1430 1430 1430 1430 1430 1430 1430 1430 1430 1430 1430 1430 1430 1430 1430 1430 1430 1429 1429 1429 1429 1428 1428 1428 1427 1427 1427 1426 1426 1426 1425 1425 1424 1424 1423 1423 1422 1422 1422 1421 1421 1420 1420 1419 1418 1418 1417
1419 1419 1420 1421 1422 1422 1423 1423 1424 1424 1425 1425 1426 1426 1426 1427 1427 1427 1428 1428 1428 1429 1429 1429 1429 1430 1430 1430 1430 1430 1430 1430 1430 1430 1430 1430 1429 1429 1429 1429 1429 1428 1428 1428 1428 1427 1427 1427 1426 1426 1426 1425 1425 1425 1424 1424 1423 1423 1422 1422 1421 1421 1420 1420 1420 1419 1418 1418 1417